Presure
122 131 137 171 182 183 161 200 172 185 180 178 161 148 176 132 161 168 174 184 181 189 197 177 179 163 173 175 151 159 153 141 151 152 158 158 143 173 185 155 159 130 151
151 199 179 196 200 185 143 208 206 188 170 175 177 171 172 124 173 149 133 168 145 149 150 165 170 162 184 174 177 137 142 160 146 145 127 137 157 161 196 159 152 143 149
217 201 143 190 139 217 171 164 148 143 163 147 178 175 176 170 157 161 162 158 145 183 155 149 162 184 188 170 180 156 145 156 155 135 138 123 131 132 145 147 154 153 146
228 231 233 148 140 205 145 156 154 179 159 148 153 135 164 154 162 162 145 175 157 217 174 160 162 152 160 184 190 154 173 169 134 140 129 135 131 133 168 180 166 157 141
234 238 208 233 177 189 208 157 128 157 178 180 170 150 183 170 162 164 145 178 195 178 151 202 153 211 189 170 172 186 190 148 143 145 149 130 130 188 139 139 147 172 154
167 225 228 233 235 208 208 228 164 158 227 240 155 171 176 184 178 148 156 171 182 172 160 151 184 148 152 144 181 165 173 195 155 152 153 134 127 130 156 151 140 126 160
167 212 204 222 230 232 234 236 187 198 171 130 119 152 165 158 154 163 203 181 166 144 193 194 154 178 303 144 125 157 191 169 170 179 144 147 127 115 125 145 137 129 135
211 221 218 212 221 240 226 232 233 244 243 247 235 159 235 204 199 215 227 214 156 145 184 176 183 199 157 191 254 152 134 153 189 150 150 137 142 152 163 148 144 144 125
220 189 225 233 234 223 226 223 242 236 245 255 242 238 227 226 204 212 224 220 227 233 225 172 168 246 182 148 259 162 160 204 142 137 142 150 154 131 162 142 141 146 134
143 229 228 221 186 204 229 233 240 234 242 238 273 244 226 228 213 236 232 240 229 235 253 217 200 206 125 191 152 179 197 221 226 153 167 145 140 150 153 127 122 129 155
162 224 226 222 223 221 227 226 224 235 225 222 251 276 177 171 171 182 173 173 183 183 192 227 219 189 190 186 198 190 150 151 182 143 148 196 181 171 157 151 153 145 140
226 151 231 225 243 225 231 238 234 223 167 168 170 170 169 169 174 176 181 178 186 247 163 220 184 183 189 177 191 180 187 178 174 180 179 254 197 151 152 171 100 168 150
134 233 225 139 158 184 247 158 271 221 165 156 163 161 158 156 162 166 176 177 188 239 235 227 242 206 184 185 186 187 192 191 267 224 182 217 186 228 221 209 191 219 182
219 146 136 218 149 191 151 162 159 167 173 264 171 171 237 189 182 259 165 159 162 169 173 183 193 195 203 255 254 250 246 244 246 238 309 225 172 201 181 169 188 204 192
161 125 122 146 145 178 158 163 191 195 162 179 197 219 259 170 224 191 198 156 179 194 219 176 174 183 200 239 238 247 243 232 232 237 247 278 270 213 279 245 221 164 205
223 175 259 159 158 163 253 171 174 153 168 192 241 190 148 177 191 196 234 187 159 150 162 185 190 216 226 232 256 233 280 274 269 279 276 281 283 299 229 202 199 188 210
163 261 189 165 151 247 249 252 259 269 273 280 280 284 288 277 269 266 256 230 258 246 251 244 273 259 262 257 253 250 246 299 298 285 276 267 294 286 274 290 239 257 229
234 247 260 280 294 297 293 292 291 284 253 256 253 257 281 306 188 289 288 275 260 261 184 252 217 273 258 256 240 230 236 257 259 251 283 270 262 264 281 279 283 246 238
290 270 255 253 260 271 279 310 306 342 388 385 364 338 315 321 311 272 295 213 275 288 281 275 258 265 242 244 240 250 265 254 250 243 242 266 262 258 254 270 279 256 271
326 330 331 330 390 330 376 343 338 333 325 324 340 365 365 369 361 348 325 316 317 308 299 302 288 313 264 262 293 282 268 251 249 333 277 259 250 255 253 251 255 272 254
281 276 277 282 285 288 290 291 289 291 298 301 301 304 309 315 314 316 324 336 353 380 390 358 320 298 310 277 266 335 279 266 259 255 256 297 317 284 245 251 249 243 270
255 254 254 259 264 266 273 278 285 286 284 279 280 281 280 279 283 282 276 280 286 283 293 298 298 302 313 280 251 243 240 235 239 240 237 239 262 317 301 246 239 238 248
246 243 250 253 254 260 267 273 261 258 258 255 258 289 259 252 249 248 249 249 250 253 247 246 242 240 240 237 239 233 227 233 245 238 244 320 313 299 346 270 266 261 267
246 246 250 252 246 274 264 257 249 244 241 290 258 243 239 245 239 240 243 239 237 238 249 236 230 233 233 227 223 228 230 233 239 331 373 337 289 293 349 245 251 260 262
262 263 266 282 288 290 259 247 244 265 264 258 237 237 232 236 233 236 234 229 237 315 311 228 390 370 287 390 277 243 244 243 242 381 386 279 261 252 251 233 231 232 247
362 345 347 353 353 371 259 230 243 265 253 239 229 226 229 226 230 230 243 237 250 282 308 291 282 311 290 276 263 250 233 238 254 269 267 267 266 263 260 261 265 260 253
Wind_Speed
5 9 9 22 35 31 17 30 26 26 24 21 14 5 13 3 12 15 19 19 20 21 25 21 22 18 15 21 23 22 25 17 19 18 10 10 8 6 7 7 2 8 6
13 37 25 38 42 32 13 38 28 31 23 27 24 22 22 12 17 16 14 24 10 12 15 14 19 20 21 17 25 13 17 20 10 19 7 11 10 7 10 6 8 5 4
35 36 19 29 15 44 29 28 19 16 22 15 28 27 23 21 24 24 27 18 21 31 18 21 19 27 26 22 25 21 17 26 21 16 14 9 16 15 11 12 10 8 7
32 32 35 24 23 37 24 28 25 32 28 20 26 10 29 25 26 28 16 36 29 35 27 21 23 23 23 26 30 21 27 25 19 22 14 14 18 21 16 14 12 10 12
31 31 41 35 29 35 38 33 9 30 36 42 37 25 36 35 34 36 19 40 36 40 29 28 30 35 31 30 27 29 33 23 29 24 24 21 19 20 21 22 17 16 14
30 34 34 34 35 33 36 44 35 33 43 47 30 35 40 41 48 27 38 49 26 33 32 35 32 31 31 30 33 31 30 36 32 29 27 24 23 26 21 24 22 20 19
30 39 37 38 37 38 41 41 36 38 37 23 20 34 37 37 35 44 46 40 37 32 39 33 36 32 41 35 27 35 39 35 36 36 35 31 26 18 24 29 25 27 25
45 45 43 42 43 43 44 45 45 45 45 47 50 39 51 49 47 47 43 43 32 36 41 39 42 41 34 38 49 37 36 43 43 39 37 33 37 36 31 30 28 29 30
45 37 47 46 44 45 47 49 47 49 50 49 51 52 53 53 50 53 48 44 42 47 44 36 37 46 40 42 43 44 45 46 44 39 38 42 43 34 39 36 33 32 31
30 45 47 51 44 52 55 53 52 53 52 50 54 52 54 54 51 53 50 50 48 47 47 46 46 47 35 44 50 41 41 46 52 50 50 48 42 45 44 40 37 40 35
36 50 50 50 55 55 59 61 60 60 56 51 49 55 37 39 40 43 40 41 42 42 43 47 47 47 46 49 51 45 51 56 45 48 49 50 56 56 51 49 48 45 44
61 41 58 56 61 59 61 62 63 62 43 44 44 43 39 40 43 44 45 45 47 49 42 51 47 51 51 52 53 47 52 50 52 50 50 63 57 53 51 59 19 55 48
30 67 62 37 46 53 62 44 68 65 47 43 47 47 44 42 44 44 48 49 54 56 56 56 53 54 56 56 58 58 59 59 54 60 57 58 56 65 62 61 65 61 62
68 48 43 64 50 59 48 52 50 53 54 65 55 55 68 58 54 67 50 48 49 55 57 59 58 59 60 56 56 56 55 57 56 58 55 63 59 63 63 62 60 64 66
58 41 33 52 54 62 58 63 76 70 57 66 77 77 70 55 63 62 61 51 58 60 57 64 64 65 66 63 63 62 60 62 62 62 60 58 62 68 70 72 69 66 69
74 70 86 64 65 67 82 74 74 49 61 81 79 81 52 69 73 73 66 66 57 52 60 69 69 72 71 67 61 59 58 57 55 54 56 59 61 58 73 76 75 73 74
71 89 75 68 58 85 86 88 87 91 89 89 90 89 85 84 85 82 82 89 82 83 78 78 66 68 65 64 60 59 59 57 58 55 55 56 59 62 63 64 74 82 79
90 90 90 91 92 93 89 88 89 85 77 79 80 78 81 78 59 78 79 79 77 85 62 80 73 68 68 65 64 65 64 59 58 58 57 57 58 60 63 64 64 76 82
85 82 81 81 83 83 84 77 76 72 60 62 70 77 85 84 81 72 80 63 78 78 81 79 81 74 74 70 68 65 64 63 61 62 60 59 61 61 61 63 63 69 68
64 62 58 54 47 49 40 42 42 42 39 37 41 50 50 52 62 68 77 81 80 78 78 76 77 68 73 72 62 61 62 62 63 63 68 64 64 65 64 63 62 65 68
37 39 38 36 36 36 35 33 33 34 34 32 32 30 28 26 28 33 36 40 46 55 58 61 55 51 51 55 59 49 45 41 41 44 46 54 71 70 67 64 64 65 67
42 42 42 39 37 34 30 28 28 24 21 19 19 18 16 16 16 18 19 20 20 20 27 31 36 39 38 41 43 42 38 42 46 49 52 55 56 67 71 67 66 67 67
46 46 45 41 36 32 30 24 16 17 17 16 17 16 6 8 12 15 19 21 23 23 21 21 25 28 32 37 40 38 44 47 47 46 54 60 61 57 64 60 62 63 64
52 49 47 44 31 37 30 19 18 17 18 15 6 13 17 14 17 20 21 23 27 29 32 26 30 37 40 40 39 43 46 46 45 43 45 47 42 47 50 56 57 57 59
59 58 55 55 51 44 27 21 19 19 11 10 14 15 18 19 19 22 23 26 29 24 26 27 19 21 28 25 34 45 45 45 41 23 28 20 27 31 38 50 53 57 56
26 27 31 31 28 27 23 24 20 15 13 14 16 19 19 23 21 22 27 26 26 26 16 14 13 10 17 20 22 26 33 32 22 13 11 14 19 25 31 36 37 43 49
Wind_Direction
323 319 309 285 276 285 287 271 274 263 261 257 273 227 244 218 267 279 284 289 286 282 270 261 258 232 235 228 232 232 234 250 242 253 256 245 262 237 256 243 280 331 16
247 261 272 268 268 277 301 277 273 253 268 273 261 265 267 257 269 276 255 283 230 253 236 257 266 243 262 238 243 228 236 233 246 254 300 279 249 250 276 241 275 286 332
268 268 283 273 292 268 273 258 289 293 271 294 256 257 254 262 278 279 283 265 291 277 239 239 263 272 257 241 248 231 246 226 222 241 250 296 289 288 278 270 266 271 298
282 279 276 282 290 276 286 271 274 272 274 281 277 245 268 286 269 278 239 280 269 273 271 245 253 248 257 258 252 256 243 234 242 238 236 258 268 277 256 252 234 254 290
280 281 280 284 271 269 277 271 282 272 268 259 272 277 268 265 270 265 265 275 280 275 239 270 241 255 259 260 252 253 252 249 232 233 238 243 258 250 273 272 272 243 264
283 282 278 282 283 275 282 278 259 268 273 272 274 274 269 262 255 262 271 272 255 254 237 260 254 251 244 240 252 253 254 252 235 229 242 242 252 257 251 261 269 284 266
278 281 280 280 282 282 279 276 266 265 262 265 276 269 258 263 262 260 269 262 265 247 270 262 238 257 257 254 272 245 245 242 243 246 235 237 270 294 281 252 257 273 272
287 287 284 281 285 291 282 283 279 283 279 279 274 254 274 276 273 272 266 266 258 262 268 260 264 265 242 256 252 254 266 245 246 244 241 255 247 259 243 238 243 260 283
287 286 289 289 285 282 284 283 288 284 286 285 274 272 269 269 271 273 274 271 266 266 265 263 259 261 260 256 257 247 258 249 261 263 258 251 253 264 253 244 248 253 272
266 292 291 290 278 287 288 285 286 284 287 284 296 280 272 272 266 277 275 275 270 270 270 262 263 261 284 263 249 257 256 253 253 258 253 262 265 259 254 268 281 271 254
286 292 291 289 288 285 288 288 288 290 287 285 289 289 269 270 270 268 270 271 270 267 265 266 262 262 262 263 262 256 254 257 250 267 265 253 251 255 255 257 257 255 260
293 282 289 286 290 285 285 286 286 285 272 274 275 273 269 268 269 267 267 265 266 270 266 266 264 265 264 266 263 261 258 253 256 255 248 247 254 264 264 257 257 256 255
285 290 288 277 280 281 280 274 299 278 275 269 271 271 269 266 268 268 273 273 274 265 266 267 268 265 267 266 266 265 264 262 258 252 257 248 252 248 247 245 246 244 251
289 278 284 287 283 283 277 282 278 280 279 285 272 273 277 272 268 272 267 268 270 273 274 273 270 270 269 261 260 257 256 256 255 250 254 248 252 250 250 253 245 244 246
281 282 282 283 282 285 282 284 278 278 277 276 279 276 276 272 271 275 271 271 269 268 268 271 274 274 275 265 265 264 261 259 257 255 252 251 248 248 238 242 245 255 245
292 281 291 283 285 286 284 285 284 282 284 279 282 282 275 282 284 283 266 276 266 265 266 267 269 271 270 267 265 264 267 262 258 254 253 253 252 249 244 250 250 248 247
284 290 286 284 284 286 284 284 284 285 284 283 280 278 274 271 271 268 267 269 263 264 262 263 263 261 263 261 261 263 264 262 260 257 253 250 249 250 247 245 241 239 240
290 288 287 287 286 284 284 283 283 281 279 278 277 278 274 269 275 264 263 262 263 263 268 263 264 262 259 262 261 261 264 262 260 257 256 253 249 249 249 248 245 241 242
288 289 289 287 286 285 284 284 283 283 285 282 277 273 271 271 268 264 259 265 264 265 262 262 264 263 264 265 265 264 260 260 259 258 256 254 252 250 247 249 248 244 247
288 288 291 293 298 291 294 291 293 296 296 294 292 286 277 275 273 271 268 270 271 267 265 263 262 263 260 265 261 260 258 260 261 258 258 255 253 250 248 247 247 247 245
295 296 301 309 309 307 309 309 303 301 301 302 298 300 300 295 288 283 280 279 274 271 269 265 260 253 252 251 254 258 254 259 262 264 264 259 252 254 250 249 248 245 247
290 293 296 301 305 311 312 311 310 309 310 311 311 311 310 311 305 308 307 303 294 284 272 263 257 254 251 240 246 254 259 259 263 264 264 267 270 253 249 247 247 247 248
289 290 294 297 302 304 304 305 303 302 300 300 305 310 316 302 295 299 301 301 298 283 269 257 256 256 255 255 259 264 265 269 277 270 273 262 254 257 246 243 248 250 252
287 289 291 294 301 295 292 286 292 296 295 296 258 283 288 300 301 306 304 290 288 284 275 265 265 264 259 260 266 267 271 275 277 271 257 250 244 254 241 239 248 253 256
285 284 285 285 288 285 282 282 287 291 271 244 269 279 294 304 311 312 305 296 299 317 296 274 293 268 250 233 236 254 263 273 284 258 247 219 220 228 235 246 253 257 257
284 286 289 297 291 288 269 275 277 260 244 254 275 287 293 301 312 316 325 310 306 320 319 300 276 179 196 215 231 249 264 277 292 291 255 247 249 250 252 256 259 258 259